N145AJ KLAX-KSAN

Flight info

Callsign N145AJ
Flight time N/A
Altitude 13000
Route LAXX1 MZB
Aircraft LJ25/M-SFGJRW/S

Departure

Time 2026-04-24 06:06
Airport Los Angeles International Airport (KLAX)

Arrival

Time N/A
Airport San Diego International Airport (KSAN)
Time Latitude Longitude Altitude Speed Heading
2026-04-24 05:36 33.93392 -118.39570 120 ft 0 kts 225°
2026-04-24 05:53 33.93395 -118.39567 118 ft 2 kts 241°
2026-04-24 05:53 33.93403 -118.39551 119 ft 4 kts 185°
2026-04-24 05:53 33.93425 -118.39547 120 ft 4 kts 108°
2026-04-24 05:53 33.93426 -118.39550 120 ft 0 kts 92°
2026-04-24 06:01 33.93426 -118.39549 120 ft 1 kts 92°
2026-04-24 06:01 33.93425 -118.39519 119 ft 7 kts 88°
2026-04-24 06:01 33.93432 -118.39435 120 ft 13 kts 84°
2026-04-24 06:02 33.93485 -118.39385 120 ft 12 kts 27°
2026-04-24 06:02 33.93512 -118.39272 120 ft 17 kts 84°
2026-04-24 06:02 33.93528 -118.39107 120 ft 23 kts 82°
2026-04-24 06:02 33.93550 -118.38897 120 ft 28 kts 83°
2026-04-24 06:03 33.93572 -118.38672 120 ft 23 kts 83°
2026-04-24 06:03 33.93582 -118.38578 119 ft 12 kts 83°
2026-04-24 06:03 33.93596 -118.38452 118 ft 18 kts 83°
2026-04-24 06:03 33.93617 -118.38303 120 ft 14 kts 56°
2026-04-24 06:04 33.93648 -118.38278 117 ft 0 kts 12°
2026-04-24 06:04 33.93654 -118.38277 117 ft 3 kts
2026-04-24 06:04 33.93699 -118.38284 120 ft 10 kts 342°
2026-04-24 06:05 33.93727 -118.38376 120 ft 13 kts 267°
2026-04-24 06:05 33.93726 -118.38382 120 ft 0 kts 266°
2026-04-24 06:06 33.93699 -118.38654 120 ft 101 kts 263°
2026-04-24 06:06 33.93594 -118.39947 749 ft 185 kts 266°
2026-04-24 06:06 33.93514 -118.41798 1771 ft 250 kts 266°
2026-04-24 06:07 33.93364 -118.44012 3292 ft 259 kts 266°
2026-04-24 06:07 33.93146 -118.46435 3964 ft 310 kts 255°